Time,TemperatureF,DewpointF,PressureIn,WindDirection,WindDirectionDegrees,WindSpeedMPH,WindSpeedGustMPH,Humidity,HourlyPrecipIn,Conditions,Clouds,dailyrainin,SoftwareType,DateUTC
2013-08-20 00:00:00,60.7,60.1,30.52,WNW,286,0.0,0.0,98,0.00,CLR,,0.00,WeatherDisplay:10.37,2013-08-20 04:00:00,
2013-08-20 00:01:00,60.7,60.1,30.52,WNW,286,0.0,0.0,98,0.00,CLR,,0.00,WeatherDisplay:10.37,2013-08-20 04:01:00,
2013-08-20 00:06:00,60.6,60.0,30.52,WNW,286,0.0,0.0,98,0.00,CLR,,0.00,WeatherDisplay:10.37,2013-08-20 04:06:00,
2013-08-20 00:12:00,60.5,59.9,30.52,WNW,286,0.0,0.0,98,0.00,CLR,,0.00,WeatherDisplay:10.37,2013-08-20 04:12:00,
2013-08-20 00:17:00,60.5,59.9,30.52,WNW,286,0.0,0.0,98,0.00,CLR,,0.00,WeatherDisplay:10.37,2013-08-20 04:17:00,
2013-08-20 00:22:00,60.5,59.9,30.52,WNW,286,0.0,0.0,98,0.00,CLR,,0.00,WeatherDisplay:10.37,2013-08-20 04:22:00,
2013-08-20 00:27:00,60.3,59.7,30.52,WNW,286,0.0,0.0,98,0.00,CLR,,0.00,WeatherDisplay:10.37,2013-08-20 04:27:00,
2013-08-20 00:32:00,60.0,59.4,30.53,WNW,286,0.0,0.0,98,0.00,CLR,,0.00,WeatherDisplay:10.37,2013-08-20 04:32:00,
2013-08-20 00:37:00,59.7,59.1,30.52,WNW,286,0.0,0.0,98,0.00,CLR,,0.00,WeatherDisplay:10.37,2013-08-20 04:37:00,
2013-08-20 00:42:00,59.5,58.9,30.53,WNW,286,0.0,0.0,98,0.00,CLR,,0.00,WeatherDisplay:10.37,2013-08-20 04:42:00,
2013-08-20 00:47:00,59.6,59.0,30.53,WNW,286,0.0,0.0,98,0.00,CLR,,0.00,WeatherDisplay:10.37,2013-08-20 04:47:00,
2013-08-20 00:52:00,59.5,58.9,30.53,WNW,286,0.0,0.0,98,0.00,CLR,,0.00,WeatherDisplay:10.37,2013-08-20 04:52:00,
2013-08-20 00:57:00,59.5,58.9,30.53,WNW,286,0.0,0.0,98,0.00,CLR,,0.00,WeatherDisplay:10.37,2013-08-20 04:57:00,
2013-08-20 01:02:00,59.3,58.7,30.53,WNW,286,0.0,0.0,98,0.00,CLR,,0.00,WeatherDisplay:10.37,2013-08-20 05:02:00,
2013-08-20 01:07:00,59.1,58.5,30.53,WNW,286,0.0,0.0,98,0.00,CLR,,0.00,WeatherDisplay:10.37,2013-08-20 05:07:00,
2013-08-20 01:12:00,59.4,58.8,30.53,WNW,286,0.0,0.0,98,0.00,CLR,,0.00,WeatherDisplay:10.37,2013-08-20 05:12:00,
2013-08-20 01:17:00,59.2,58.6,30.53,WNW,286,0.0,0.0,98,0.00,CLR,,0.00,WeatherDisplay:10.37,2013-08-20 05:17:00,
2013-08-20 01:22:00,59.0,58.4,30.53,WNW,286,0.0,0.0,98,0.00,CLR,,0.00,WeatherDisplay:10.37,2013-08-20 05:22:00,
2013-08-20 01:27:00,58.8,58.2,30.52,WNW,286,0.0,0.0,98,0.00,CLR,,0.00,WeatherDisplay:10.37,2013-08-20 05:27:00,
2013-08-20 01:32:00,58.7,58.1,30.53,WNW,286,0.0,0.0,98,0.00,CLR,,0.00,WeatherDisplay:10.37,2013-08-20 05:32:00,
2013-08-20 01:37:00,58.7,58.1,30.53,WNW,286,0.0,0.0,98,0.00,CLR,,0.00,WeatherDisplay:10.37,2013-08-20 05:37:00,
2013-08-20 01:42:00,58.6,58.0,30.53,WNW,286,0.0,0.0,98,0.00,CLR,,0.00,WeatherDisplay:10.37,2013-08-20 05:42:00,
2013-08-20 01:47:00,58.7,58.1,30.53,WNW,286,0.0,0.0,98,0.00,CLR,,0.00,WeatherDisplay:10.37,2013-08-20 05:47:00,
2013-08-20 01:52:00,58.4,57.8,30.53,WNW,286,0.0,0.0,98,0.00,CLR,,0.00,WeatherDisplay:10.37,2013-08-20 05:52:00,
2013-08-20 01:57:00,58.6,58.0,30.53,WNW,286,0.0,0.0,98,0.00,CLR,,0.00,WeatherDisplay:10.37,2013-08-20 05:57:00,
2013-08-20 02:02:00,58.6,58.0,30.53,WNW,286,0.0,0.0,98,0.00,CLR,,0.00,WeatherDisplay:10.37,2013-08-20 06:02:00,
2013-08-20 02:07:00,58.4,57.8,30.52,WNW,286,0.0,0.0,98,0.00,CLR,,0.00,WeatherDisplay:10.37,2013-08-20 06:07:00,
2013-08-20 02:12:00,58.3,57.7,30.52,WNW,286,1.2,1.2,98,0.00,CLR,,0.00,WeatherDisplay:10.37,2013-08-20 06:12:00,
2013-08-20 02:17:00,58.3,57.7,30.53,WNW,286,0.0,0.0,98,0.00,CLR,,0.00,WeatherDisplay:10.37,2013-08-20 06:17:00,
2013-08-20 02:22:00,58.2,57.6,30.52,WNW,286,1.2,0.0,98,0.00,CLR,,0.00,WeatherDisplay:10.37,2013-08-20 06:22:00,
2013-08-20 02:27:00,58.1,57.5,30.52,WNW,286,0.0,0.0,98,0.00,CLR,,0.00,WeatherDisplay:10.37,2013-08-20 06:27:00,
2013-08-20 02:32:00,58.0,57.4,30.52,WNW,286,0.0,0.0,98,0.00,CLR,,0.00,WeatherDisplay:10.37,2013-08-20 06:32:00,
2013-08-20 02:37:00,58.3,57.7,30.53,WNW,286,0.0,0.0,98,0.00,CLR,,0.00,WeatherDisplay:10.37,2013-08-20 06:37:00,
2013-08-20 02:42:00,58.4,57.8,30.53,WNW,286,0.0,0.0,98,0.00,CLR,,0.00,WeatherDisplay:10.37,2013-08-20 06:42:00,
2013-08-20 02:47:00,58.2,57.6,30.53,WNW,286,0.0,0.0,98,0.00,CLR,,0.00,WeatherDisplay:10.37,2013-08-20 06:47:00,
2013-08-20 02:52:00,58.0,57.4,30.53,WNW,286,0.0,0.0,98,0.00,CLR,,0.00,WeatherDisplay:10.37,2013-08-20 06:52:00,
2013-08-20 02:57:00,57.8,57.2,30.53,WNW,286,0.0,0.0,98,0.00,CLR,,0.00,WeatherDisplay:10.37,2013-08-20 06:57:00,
2013-08-20 03:02:00,57.8,57.2,30.53,WNW,286,0.0,0.0,98,0.00,CLR,,0.00,WeatherDisplay:10.37,2013-08-20 07:02:00,
2013-08-20 03:07:00,57.4,56.8,30.53,WNW,286,0.0,0.0,98,0.00,CLR,,0.00,WeatherDisplay:10.37,2013-08-20 07:07:00,
2013-08-20 03:12:00,57.2,56.6,30.53,WNW,286,0.0,0.0,98,0.00,CLR,,0.00,WeatherDisplay:10.37,2013-08-20 07:12:00,
2013-08-20 03:17:00,57.2,56.6,30.53,WNW,286,0.0,0.0,98,0.00,CLR,,0.00,WeatherDisplay:10.37,2013-08-20 07:17:00,
2013-08-20 03:22:00,57.5,56.9,30.53,WNW,286,0.0,0.0,98,0.00,CLR,,0.00,WeatherDisplay:10.37,2013-08-20 07:22:00,
2013-08-20 03:27:00,57.8,57.2,30.53,WNW,286,0.0,0.0,98,0.00,CLR,,0.00,WeatherDisplay:10.37,2013-08-20 07:27:00,
2013-08-20 03:32:00,57.7,57.1,30.53,WNW,286,0.0,0.0,98,0.00,CLR,,0.00,WeatherDisplay:10.37,2013-08-20 07:32:00,
2013-08-20 03:37:00,57.4,56.8,30.53,WNW,286,0.0,0.0,98,0.00,CLR,,0.00,WeatherDisplay:10.37,2013-08-20 07:37:00,
2013-08-20 03:42:00,57.2,56.6,30.53,WNW,286,0.0,0.0,98,0.00,CLR,,0.00,WeatherDisplay:10.37,2013-08-20 07:42:00,
2013-08-20 03:47:00,57.1,56.5,30.53,WNW,286,0.0,0.0,98,0.00,CLR,,0.00,WeatherDisplay:10.37,2013-08-20 07:47:00,
2013-08-20 03:52:00,56.9,56.3,30.53,WNW,286,0.0,0.0,98,0.00,CLR,,0.00,WeatherDisplay:10.37,2013-08-20 07:52:00,
2013-08-20 03:57:00,57.0,56.4,30.53,WNW,286,1.2,1.2,98,0.00,CLR,,0.00,WeatherDisplay:10.37,2013-08-20 07:57:00,
2013-08-20 04:02:00,57.1,56.5,30.53,WNW,286,1.2,0.0,98,0.00,CLR,,0.00,WeatherDisplay:10.37,2013-08-20 08:02:00,
2013-08-20 04:07:00,56.9,56.3,30.53,WNW,286,1.2,0.0,98,0.00,CLR,,0.00,WeatherDisplay:10.37,2013-08-20 08:07:00,
2013-08-20 04:12:00,56.8,56.2,30.53,WNW,286,1.2,1.2,98,0.00,CLR,,0.00,WeatherDisplay:10.37,2013-08-20 08:12:00,
2013-08-20 04:17:00,56.8,56.2,30.53,WNW,286,0.0,0.0,98,0.00,CLR,,0.00,WeatherDisplay:10.37,2013-08-20 08:17:00,
2013-08-20 04:22:00,56.7,56.1,30.53,WNW,286,0.0,0.0,98,0.00,CLR,,0.00,WeatherDisplay:10.37,2013-08-20 08:22:00,
2013-08-20 04:27:00,56.4,55.8,30.54,WNW,286,0.0,0.0,98,0.00,CLR,,0.00,WeatherDisplay:10.37,2013-08-20 08:27:00,
2013-08-20 04:32:00,56.4,55.8,30.53,WNW,286,0.0,0.0,98,0.00,CLR,,0.00,WeatherDisplay:10.37,2013-08-20 08:32:00,
2013-08-20 04:37:00,56.3,55.7,30.54,WNW,286,0.0,0.0,98,0.00,CLR,,0.00,WeatherDisplay:10.37,2013-08-20 08:37:00,
2013-08-20 04:42:00,56.2,55.6,30.54,WNW,286,0.0,0.0,98,0.00,CLR,,0.00,WeatherDisplay:10.37,2013-08-20 08:42:00,
2013-08-20 04:47:00,56.1,55.5,30.54,WNW,286,0.0,0.0,98,0.00,CLR,,0.00,WeatherDisplay:10.37,2013-08-20 08:47:00,
2013-08-20 04:52:00,56.1,55.5,30.54,WNW,286,0.0,0.0,98,0.00,CLR,,0.00,WeatherDisplay:10.37,2013-08-20 08:52:00,
2013-08-20 04:57:00,56.0,55.4,30.54,WNW,286,0.0,0.0,98,0.00,CLR,,0.00,WeatherDisplay:10.37,2013-08-20 08:57:00,
2013-08-20 05:02:00,55.8,55.2,30.54,WNW,286,0.0,0.0,98,0.00,CLR,,0.00,WeatherDisplay:10.37,2013-08-20 09:02:00,
2013-08-20 05:07:00,55.9,55.3,30.54,WNW,286,0.0,0.0,98,0.00,CLR,,0.00,WeatherDisplay:10.37,2013-08-20 09:07:00,
2013-08-20 05:12:00,55.9,55.3,30.55,WNW,286,0.0,0.0,98,0.00,CLR,,0.00,WeatherDisplay:10.37,2013-08-20 09:12:00,
2013-08-20 05:17:00,55.8,55.2,30.55,WNW,286,0.0,0.0,98,0.00,CLR,,0.00,WeatherDisplay:10.37,2013-08-20 09:17:00,
2013-08-20 05:22:00,55.8,55.5,30.55,WNW,286,0.0,0.0,99,0.00,CLR,,0.00,WeatherDisplay:10.37,2013-08-20 09:22:00,
2013-08-20 05:27:00,55.9,55.6,30.55,WNW,286,0.0,0.0,99,0.00,CLR,,0.00,WeatherDisplay:10.37,2013-08-20 09:27:00,
2013-08-20 05:32:00,55.9,55.6,30.55,WNW,286,0.0,0.0,99,0.00,CLR,,0.00,WeatherDisplay:10.37,2013-08-20 09:32:00,
2013-08-20 05:37:00,55.7,55.1,30.55,WNW,286,0.0,0.0,98,0.00,CLR,,0.00,WeatherDisplay:10.37,2013-08-20 09:37:00,
2013-08-20 05:42:00,55.6,55.0,30.55,WNW,286,0.0,0.0,98,0.00,CLR,,0.00,WeatherDisplay:10.37,2013-08-20 09:42:00,
2013-08-20 05:47:00,55.6,55.0,30.55,WNW,286,0.0,0.0,98,0.00,CLR,,0.00,WeatherDisplay:10.37,2013-08-20 09:47:00,
2013-08-20 05:52:00,55.7,55.4,30.55,WNW,286,0.0,0.0,99,0.00,CLR,,0.00,WeatherDisplay:10.37,2013-08-20 09:52:00,
2013-08-20 05:57:00,55.5,55.2,30.55,WNW,286,0.0,0.0,99,0.00,CLR,,0.00,WeatherDisplay:10.37,2013-08-20 09:57:00,
2013-08-20 06:02:00,55.4,54.8,30.55,WNW,286,0.0,0.0,98,0.00,CLR,,0.00,WeatherDisplay:10.37,2013-08-20 10:02:00,
2013-08-20 06:07:00,55.4,55.1,30.55,WNW,286,0.0,0.0,99,0.00,CLR,,0.00,WeatherDisplay:10.37,2013-08-20 10:07:00,
2013-08-20 06:12:00,55.5,55.2,30.55,WNW,286,0.0,0.0,99,0.00,CLR,,0.00,WeatherDisplay:10.37,2013-08-20 10:12:00,
2013-08-20 06:17:00,55.5,55.2,30.56,WNW,286,0.0,0.0,99,0.00,CLR,,0.00,WeatherDisplay:10.37,2013-08-20 10:17:00,
2013-08-20 06:22:00,55.1,54.8,30.56,WNW,286,0.0,0.0,99,0.00,CLR,,0.00,WeatherDisplay:10.37,2013-08-20 10:22:00,
2013-08-20 06:27:00,54.9,54.3,30.56,WNW,286,0.0,0.0,98,0.00,CLR,,0.00,WeatherDisplay:10.37,2013-08-20 10:27:00,
2013-08-20 06:32:00,54.9,54.6,30.56,WNW,286,0.0,0.0,99,0.00,CLR,,0.00,WeatherDisplay:10.37,2013-08-20 10:32:00,
2013-08-20 06:37:00,54.8,54.5,30.56,WNW,286,0.0,0.0,99,0.00,CLR,,0.00,WeatherDisplay:10.37,2013-08-20 10:37:00,
2013-08-20 06:42:00,54.7,54.4,30.57,WNW,286,0.0,0.0,99,0.00,CLR,,0.00,WeatherDisplay:10.37,2013-08-20 10:42:00,
2013-08-20 06:47:00,54.7,54.4,30.57,WNW,286,0.0,0.0,99,0.00,CLR,,0.00,WeatherDisplay:10.37,2013-08-20 10:47:00,
2013-08-20 06:52:00,54.9,54.6,30.57,WNW,286,0.0,0.0,99,0.00,CLR,,0.00,WeatherDisplay:10.37,2013-08-20 10:52:00,
2013-08-20 06:57:00,54.9,54.6,30.57,WNW,286,0.0,0.0,99,0.00,CLR,,0.00,WeatherDisplay:10.37,2013-08-20 10:57:00,
2013-08-20 07:02:00,55.0,54.7,30.57,WNW,286,0.0,0.0,99,0.00,FEW,,0.00,WeatherDisplay:10.37,2013-08-20 11:02:00,
2013-08-20 07:07:00,55.7,55.4,30.57,WNW,286,0.0,0.0,99,0.00,FEW,,0.00,WeatherDisplay:10.37,2013-08-20 11:07:00,
2013-08-20 07:12:00,56.6,56.3,30.57,WNW,286,0.0,0.0,99,0.00,FEW,,0.00,WeatherDisplay:10.37,2013-08-20 11:12:00,
2013-08-20 07:17:00,56.9,56.6,30.58,WNW,286,0.0,0.0,99,0.00,FEW,,0.00,WeatherDisplay:10.37,2013-08-20 11:17:00,
2013-08-20 07:22:00,57.2,56.9,30.58,WNW,286,0.0,0.0,99,0.00,FEW,,0.00,WeatherDisplay:10.37,2013-08-20 11:22:00,
2013-08-20 07:27:00,57.9,57.6,30.58,WNW,286,0.0,0.0,99,0.00,FEW,,0.00,WeatherDisplay:10.37,2013-08-20 11:27:00,
2013-08-20 07:32:00,58.9,58.6,30.58,WNW,286,0.0,0.0,99,0.00,FEW,,0.00,WeatherDisplay:10.37,2013-08-20 11:32:00,
2013-08-20 07:37:00,60.0,59.7,30.58,WNW,286,0.0,0.0,99,0.00,FEW,,0.00,WeatherDisplay:10.37,2013-08-20 11:37:00,
2013-08-20 07:42:00,61.1,60.8,30.58,WNW,286,0.0,0.0,99,0.00,FEW,,0.00,WeatherDisplay:10.37,2013-08-20 11:42:00,
2013-08-20 07:47:00,62.1,61.8,30.58,WNW,286,0.0,0.0,99,0.00,FEW,,0.00,WeatherDisplay:10.37,2013-08-20 11:47:00,
2013-08-20 07:52:00,62.4,62.1,30.58,WNW,286,0.0,0.0,99,0.00,FEW,,0.00,WeatherDisplay:10.37,2013-08-20 11:52:00,
2013-08-20 07:57:00,61.7,61.1,30.59,WNW,286,0.0,0.0,98,0.00,FEW,,0.00,WeatherDisplay:10.37,2013-08-20 11:57:00,
2013-08-20 08:02:00,61.6,61.0,30.59,WNW,286,1.2,1.2,98,0.00,FEW,,0.00,WeatherDisplay:10.37,2013-08-20 12:02:00,
2013-08-20 08:07:00,61.8,61.2,30.59,WNW,286,1.2,1.2,98,0.00,FEW,,0.00,WeatherDisplay:10.37,2013-08-20 12:07:00,
2013-08-20 08:12:00,62.1,61.5,30.59,WNW,286,1.2,0.0,98,0.00,FEW,,0.00,WeatherDisplay:10.37,2013-08-20 12:12:00,
2013-08-20 08:17:00,62.7,61.2,30.59,West,269,2.3,2.3,95,0.00,FEW,,0.00,WeatherDisplay:10.37,2013-08-20 12:17:00,
2013-08-20 08:22:00,63.6,61.8,30.59,West,269,1.2,0.0,94,0.00,FEW,,0.00,WeatherDisplay:10.37,2013-08-20 12:22:00,
2013-08-20 08:27:00,64.5,62.1,30.59,West,269,1.0,1.0,92,0.00,FEW,,0.00,WeatherDisplay:10.37,2013-08-20 12:27:00,
2013-08-20 08:32:00,65.3,62.3,30.59,West,269,2.3,2.3,90,0.00,FEW,,0.00,WeatherDisplay:10.37,2013-08-20 12:32:00,
2013-08-20 08:37:00,66.1,62.4,30.59,WSW,247,2.3,2.3,88,0.00,FEW,,0.00,WeatherDisplay:10.37,2013-08-20 12:37:00,
2013-08-20 08:42:00,66.9,63.2,30.59,WSW,247,1.2,1.2,88,0.00,FEW,,0.00,WeatherDisplay:10.37,2013-08-20 12:42:00,
2013-08-20 08:47:00,67.7,63.4,30.59,WSW,247,2.3,2.3,86,0.00,FEW,,0.00,WeatherDisplay:10.37,2013-08-20 12:47:00,
2013-08-20 08:52:00,68.3,63.3,30.60,WSW,249,3.5,3.5,84,0.00,FEW,,0.00,WeatherDisplay:10.37,2013-08-20 12:52:00,
2013-08-20 08:57:00,68.8,63.4,30.59,West,259,3.5,3.5,83,0.00,FEW,,0.00,WeatherDisplay:10.37,2013-08-20 12:57:00,
2013-08-20 09:02:00,69.4,63.7,30.59,WSW,257,4.0,4.0,82,0.00,CLR,,0.00,WeatherDisplay:10.37,2013-08-20 13:02:00,
2013-08-20 09:07:00,70.0,64.2,30.59,WNW,289,5.0,5.0,82,0.00,CLR,,0.00,WeatherDisplay:10.37,2013-08-20 13:07:00,
2013-08-20 09:12:00,70.4,63.2,30.60,West,274,3.5,3.5,78,0.00,CLR,,0.00,WeatherDisplay:10.37,2013-08-20 13:12:00,
2013-08-20 09:17:00,70.8,62.9,30.59,West,260,3.5,4.2,76,0.00,CLR,,0.00,WeatherDisplay:10.37,2013-08-20 13:17:00,
2013-08-20 09:22:00,71.2,63.6,30.59,West,279,5.0,5.0,77,0.00,CLR,,0.00,WeatherDisplay:10.37,2013-08-20 13:22:00,
2013-08-20 09:27:00,71.6,63.3,30.59,West,271,5.8,5.8,75,0.00,CLR,,0.00,WeatherDisplay:10.37,2013-08-20 13:27:00,
2013-08-20 09:32:00,71.8,62.7,30.59,West,264,4.6,4.6,73,0.00,CLR,,0.00,WeatherDisplay:10.37,2013-08-20 13:32:00,
2013-08-20 09:37:00,72.2,62.3,30.59,West,266,4.6,4.6,71,0.00,CLR,,0.00,WeatherDisplay:10.37,2013-08-20 13:37:00,
2013-08-20 09:42:00,72.6,64.2,30.59,WNW,290,6.9,6.9,75,0.00,CLR,,0.00,WeatherDisplay:10.37,2013-08-20 13:42:00,
2013-08-20 09:47:00,73.0,63.8,30.59,West,260,4.0,4.0,73,0.00,CLR,,0.00,WeatherDisplay:10.37,2013-08-20 13:47:00,
2013-08-20 09:52:00,73.3,64.1,30.59,WSW,255,6.9,6.9,73,0.00,CLR,,0.00,WeatherDisplay:10.37,2013-08-20 13:52:00,
2013-08-20 09:57:00,73.7,64.1,30.59,WNW,284,6.9,6.9,72,0.00,CLR,,0.00,WeatherDisplay:10.37,2013-08-20 13:57:00,
2013-08-20 10:02:00,73.9,64.3,30.59,WSW,258,4.6,4.6,72,0.00,CLR,,0.00,WeatherDisplay:10.37,2013-08-20 14:02:00,
2013-08-20 10:07:00,74.0,63.2,30.59,WNW,282,6.9,6.9,69,0.00,CLR,,0.00,WeatherDisplay:10.37,2013-08-20 14:07:00,
2013-08-20 10:12:00,74.1,62.9,30.59,West,275,8.1,8.1,68,0.00,CLR,,0.00,WeatherDisplay:10.37,2013-08-20 14:12:00,
2013-08-20 10:17:00,74.3,63.9,30.59,West,276,5.8,5.8,70,0.00,CLR,,0.00,WeatherDisplay:10.37,2013-08-20 14:17:00,
2013-08-20 10:22:00,74.6,63.3,30.59,WNW,290,9.2,9.2,68,0.00,CLR,,0.00,WeatherDisplay:10.37,2013-08-20 14:22:00,
2013-08-20 10:28:00,74.6,63.3,30.59,WNW,285,11.5,11.5,68,0.00,CLR,,0.00,WeatherDisplay:10.37,2013-08-20 14:28:00,
2013-08-20 10:33:00,75.1,63.8,30.60,NW,305,8.1,8.1,68,0.00,CLR,,0.00,WeatherDisplay:10.37,2013-08-20 14:33:00,
2013-08-20 10:38:00,75.2,63.5,30.60,WNW,286,6.9,6.9,67,0.00,CLR,,0.00,WeatherDisplay:10.37,2013-08-20 14:38:00,
2013-08-20 10:43:00,75.5,64.6,30.59,NW,317,6.0,6.3,69,0.00,CLR,,0.00,WeatherDisplay:10.37,2013-08-20 14:43:00,
2013-08-20 10:48:00,75.6,64.3,30.60,WNW,292,9.2,9.2,68,0.00,CLR,,0.00,WeatherDisplay:10.37,2013-08-20 14:48:00,
2013-08-20 10:53:00,75.6,63.9,30.59,WNW,286,11.5,11.5,67,0.00,CLR,,0.00,WeatherDisplay:10.37,2013-08-20 14:53:00,
2013-08-20 10:58:00,75.8,65.3,30.59,West,261,8.1,8.1,70,0.00,CLR,,0.00,WeatherDisplay:10.37,2013-08-20 14:58:00,
2013-08-20 11:03:00,76.5,65.1,30.60,West,262,6.0,6.0,68,0.00,FEW,,0.00,WeatherDisplay:10.37,2013-08-20 15:03:00,
2013-08-20 11:08:00,76.4,64.2,30.60,WNW,298,8.1,8.1,66,0.00,FEW,,0.00,WeatherDisplay:10.37,2013-08-20 15:08:00,
2013-08-20 11:13:00,76.8,63.7,30.60,WNW,284,10.4,10.4,64,0.00,FEW,,0.00,WeatherDisplay:10.37,2013-08-20 15:13:00,
2013-08-20 11:18:00,76.8,63.2,30.60,West,272,11.5,11.5,63,0.00,FEW,,0.00,WeatherDisplay:10.37,2013-08-20 15:18:00,
2013-08-20 11:23:00,76.9,64.7,30.60,WSW,249,12.7,12.7,66,0.00,FEW,,0.00,WeatherDisplay:10.37,2013-08-20 15:23:00,
2013-08-20 11:28:00,77.0,63.4,30.60,WSW,253,11.5,11.5,63,0.00,FEW,,0.00,WeatherDisplay:10.37,2013-08-20 15:28:00,
2013-08-20 11:33:00,77.1,64.0,30.60,WNW,298,11.5,11.5,64,0.00,FEW,,0.00,WeatherDisplay:10.37,2013-08-20 15:33:00,
2013-08-20 11:38:00,77.4,64.7,30.60,West,270,6.9,6.9,65,0.00,FEW,,0.00,WeatherDisplay:10.37,2013-08-20 15:38:00,
2013-08-20 11:43:00,77.5,63.9,30.60,WSW,251,8.1,8.1,63,0.00,FEW,,0.00,WeatherDisplay:10.37,2013-08-20 15:43:00,
2013-08-20 11:48:00,78.0,63.9,30.60,NW,318,9.2,9.2,62,0.00,FEW,,0.00,WeatherDisplay:10.37,2013-08-20 15:48:00,
2013-08-20 11:53:00,78.2,63.6,30.60,West,276,10.4,10.4,61,0.00,FEW,,0.00,WeatherDisplay:10.37,2013-08-20 15:53:00,
2013-08-20 11:58:00,78.3,64.7,30.60,West,263,8.1,8.1,63,0.00,FEW,,0.00,WeatherDisplay:10.37,2013-08-20 15:58:00,
2013-08-20 12:03:00,78.3,64.7,30.59,WSW,243,9.2,9.2,63,0.00,FEW,,0.00,WeatherDisplay:10.37,2013-08-20 16:03:00,
2013-08-20 12:08:00,78.5,63.5,30.59,WNW,289,9.2,9.2,60,0.00,FEW,,0.00,WeatherDisplay:10.37,2013-08-20 16:08:00,
2013-08-20 12:13:00,78.6,63.6,30.59,WSW,239,11.5,11.5,60,0.00,FEW,,0.00,WeatherDisplay:10.37,2013-08-20 16:13:00,
2013-08-20 12:18:00,78.6,64.0,30.59,WSW,248,6.9,6.9,61,0.00,FEW,,0.00,WeatherDisplay:10.37,2013-08-20 16:18:00,
2013-08-20 12:23:00,78.9,63.4,30.59,West,274,8.1,8.1,59,0.00,FEW,,0.00,WeatherDisplay:10.37,2013-08-20 16:23:00,
2013-08-20 12:28:00,79.1,65.0,30.59,West,269,7.0,7.0,62,0.00,FEW,,0.00,WeatherDisplay:10.37,2013-08-20 16:28:00,
2013-08-20 12:33:00,79.6,64.0,30.59,WNW,288,7.0,7.0,59,0.00,FEW,,0.00,WeatherDisplay:10.37,2013-08-20 16:33:00,
2013-08-20 12:38:00,79.6,64.5,30.59,WNW,300,9.2,9.2,60,0.00,FEW,,0.00,WeatherDisplay:10.37,2013-08-20 16:38:00,
2013-08-20 12:43:00,79.8,63.7,30.59,WSW,256,9.2,9.2,58,0.00,FEW,,0.00,WeatherDisplay:10.37,2013-08-20 16:43:00,
2013-08-20 12:48:00,80.1,63.5,30.59,West,281,10.0,10.0,57,0.00,FEW,,0.00,WeatherDisplay:10.37,2013-08-20 16:48:00,
2013-08-20 12:53:00,80.1,63.5,30.59,NW,317,3.5,3.5,57,0.00,FEW,,0.00,WeatherDisplay:10.37,2013-08-20 16:53:00,
2013-08-20 12:58:00,80.6,64.9,30.59,West,266,9.2,9.2,59,0.00,FEW,,0.00,WeatherDisplay:10.37,2013-08-20 16:58:00,
2013-08-20 13:03:00,80.3,62.7,30.59,WNW,288,13.8,13.8,55,0.00,FEW,,0.00,WeatherDisplay:10.37,2013-08-20 17:03:00,
2013-08-20 13:08:00,80.1,61.4,30.59,WNW,301,7.0,7.0,53,0.00,FEW,,0.00,WeatherDisplay:10.37,2013-08-20 17:08:00,
2013-08-20 13:13:00,79.8,61.7,30.59,WNW,294,8.1,8.1,54,0.00,FEW,,0.00,WeatherDisplay:10.37,2013-08-20 17:13:00,
2013-08-20 13:18:00,79.8,63.2,30.59,WNW,296,8.1,8.1,57,0.00,FEW,,0.00,WeatherDisplay:10.37,2013-08-20 17:18:00,
2013-08-20 13:23:00,79.9,62.3,30.59,West,268,9.0,9.0,55,0.00,FEW,,0.00,WeatherDisplay:10.37,2013-08-20 17:23:00,
2013-08-20 13:28:00,80.4,61.7,30.59,West,275,10.0,10.0,53,0.00,FEW,,0.00,WeatherDisplay:10.37,2013-08-20 17:28:00,
2013-08-20 13:33:00,80.7,62.5,30.58,NW,311,7.0,7.0,54,0.00,FEW,,0.00,WeatherDisplay:10.37,2013-08-20 17:33:00,
2013-08-20 13:38:00,80.7,60.3,30.59,North,359,6.9,6.9,50,0.00,FEW,,0.00,WeatherDisplay:10.37,2013-08-20 17:38:00,
2013-08-20 13:43:00,81.0,62.8,30.58,WNW,288,11.5,11.5,54,0.00,FEW,,0.00,WeatherDisplay:10.37,2013-08-20 17:43:00,
2013-08-20 13:48:00,81.2,62.4,30.58,WNW,286,5.8,5.8,53,0.00,FEW,,0.00,WeatherDisplay:10.37,2013-08-20 17:48:00,
2013-08-20 13:53:00,81.7,64.0,30.58,WSW,255,7.0,7.0,55,0.00,FEW,,0.00,WeatherDisplay:10.37,2013-08-20 17:53:00,
2013-08-20 13:58:00,81.6,62.3,30.58,WSW,257,9.2,9.2,52,0.00,FEW,,0.00,WeatherDisplay:10.37,2013-08-20 17:58:00,
2013-08-20 14:03:00,81.7,61.2,30.58,WNW,285,9.2,9.2,50,0.00,SCT,,0.00,WeatherDisplay:10.37,2013-08-20 18:03:00,
2013-08-20 14:08:00,81.8,61.3,30.58,NNW,328,8.0,8.0,50,0.00,SCT,,0.00,WeatherDisplay:10.37,2013-08-20 18:08:00,
2013-08-20 14:13:00,81.6,63.3,30.58,WNW,283,9.2,9.2,54,0.00,SCT,,0.00,WeatherDisplay:10.37,2013-08-20 18:13:00,
2013-08-20 14:18:00,82.0,63.7,30.58,West,260,6.9,6.9,54,0.00,SCT,,0.00,WeatherDisplay:10.37,2013-08-20 18:18:00,
2013-08-20 14:23:00,82.1,63.3,30.58,WNW,283,6.9,6.9,53,0.00,SCT,,0.00,WeatherDisplay:10.37,2013-08-20 18:23:00,
2013-08-20 14:28:00,81.9,61.4,30.58,WNW,300,11.5,11.5,50,0.00,SCT,,0.00,WeatherDisplay:10.37,2013-08-20 18:28:00,
2013-08-20 14:33:00,82.0,63.2,30.58,West,281,5.8,5.8,53,0.00,SCT,,0.00,WeatherDisplay:10.37,2013-08-20 18:33:00,
2013-08-20 14:38:00,81.9,62.5,30.58,WNW,296,6.0,6.0,52,0.00,SCT,,0.00,WeatherDisplay:10.37,2013-08-20 18:38:00,
2013-08-20 14:43:00,82.2,62.8,30.57,West,276,6.0,6.0,52,0.00,SCT,,0.00,WeatherDisplay:10.37,2013-08-20 18:43:00,
2013-08-20 14:48:00,82.1,62.7,30.57,West,278,5.8,5.8,52,0.00,SCT,,0.00,WeatherDisplay:10.37,2013-08-20 18:48:00,
2013-08-20 14:53:00,82.0,62.1,30.57,West,259,6.9,6.9,51,0.00,SCT,,0.00,WeatherDisplay:10.37,2013-08-20 18:53:00,
2013-08-20 14:58:00,82.2,62.3,30.57,West,274,9.2,9.2,51,0.00,SCT,,0.00,WeatherDisplay:10.37,2013-08-20 18:58:00,
2013-08-20 15:03:00,81.9,63.1,30.57,West,260,5.8,5.8,53,0.00,FEW,,0.00,WeatherDisplay:10.37,2013-08-20 19:03:00,
2013-08-20 15:08:00,82.3,61.8,30.57,NW,313,6.9,6.9,50,0.00,FEW,,0.00,WeatherDisplay:10.37,2013-08-20 19:08:00,
2013-08-20 15:13:00,82.0,61.5,30.57,WNW,300,10.4,10.4,50,0.00,FEW,,0.00,WeatherDisplay:10.37,2013-08-20 19:13:00,
2013-08-20 15:18:00,81.6,63.3,30.57,WNW,290,3.5,3.5,54,0.00,FEW,,0.00,WeatherDisplay:10.37,2013-08-20 19:18:00,
2013-08-20 15:23:00,82.1,64.3,30.57,NW,316,11.5,11.5,55,0.00,FEW,,0.00,WeatherDisplay:10.37,2013-08-20 19:23:00,
2013-08-20 15:28:00,82.1,63.3,30.57,WNW,290,6.9,6.9,53,0.00,FEW,,0.00,WeatherDisplay:10.37,2013-08-20 19:28:00,
2013-08-20 15:33:00,82.0,61.0,30.57,WNW,288,6.0,6.0,49,0.00,FEW,,0.00,WeatherDisplay:10.37,2013-08-20 19:33:00,
2013-08-20 15:38:00,81.8,61.3,30.57,WNW,297,8.1,8.1,50,0.00,FEW,,0.00,WeatherDisplay:10.37,2013-08-20 19:38:00,
2013-08-20 15:43:00,82.1,61.6,30.57,West,268,9.2,9.2,50,0.00,FEW,,0.00,WeatherDisplay:10.37,2013-08-20 19:43:00,
2013-08-20 15:48:00,82.1,61.0,30.57,West,270,8.1,8.1,49,0.00,FEW,,0.00,WeatherDisplay:10.37,2013-08-20 19:48:00,
2013-08-20 15:53:00,82.1,63.8,30.57,WNW,290,4.6,4.6,54,0.00,FEW,,0.00,WeatherDisplay:10.37,2013-08-20 19:53:00,
2013-08-20 15:58:00,82.3,62.9,30.57,WSW,248,9.2,9.2,52,0.00,FEW,,0.00,WeatherDisplay:10.37,2013-08-20 19:58:00,
2013-08-20 16:03:00,82.4,60.7,30.57,West,280,6.0,6.0,48,0.00,FEW,,0.00,WeatherDisplay:10.37,2013-08-20 20:03:00,
2013-08-20 16:08:00,82.4,62.5,30.57,WNW,302,8.0,8.0,51,0.00,FEW,,0.00,WeatherDisplay:10.37,2013-08-20 20:08:00,
2013-08-20 16:13:00,82.4,63.5,30.56,West,280,5.8,5.8,53,0.00,FEW,,0.00,WeatherDisplay:10.37,2013-08-20 20:13:00,
2013-08-20 16:18:00,82.6,60.9,30.56,WNW,283,8.1,8.1,48,0.00,FEW,,0.00,WeatherDisplay:10.37,2013-08-20 20:18:00,
2013-08-20 16:23:00,82.5,62.5,30.56,WNW,289,7.0,7.0,51,0.00,FEW,,0.00,WeatherDisplay:10.37,2013-08-20 20:23:00,
2013-08-20 16:28:00,82.2,61.7,30.56,WNW,283,10.4,10.4,50,0.00,FEW,,0.00,WeatherDisplay:10.37,2013-08-20 20:28:00,
2013-08-20 16:33:00,81.8,61.9,30.56,West,275,4.6,4.6,51,0.00,FEW,,0.00,WeatherDisplay:10.37,2013-08-20 20:33:00,
2013-08-20 16:38:00,82.1,63.8,30.56,West,262,3.5,3.5,54,0.00,FEW,,0.00,WeatherDisplay:10.37,2013-08-20 20:38:00,
2013-08-20 16:43:00,82.4,63.5,30.56,WNW,286,6.0,6.0,53,0.00,FEW,,0.00,WeatherDisplay:10.37,2013-08-20 20:43:00,
2013-08-20 16:48:00,82.3,61.8,30.56,WNW,299,6.9,6.9,50,0.00,FEW,,0.00,WeatherDisplay:10.37,2013-08-20 20:48:00,
2013-08-20 16:53:00,82.6,63.7,30.56,West,278,5.8,5.8,53,0.00,FEW,,0.00,WeatherDisplay:10.37,2013-08-20 20:53:00,
2013-08-20 16:58:00,82.4,63.5,30.56,WNW,283,9.2,9.2,53,0.00,FEW,,0.00,WeatherDisplay:10.37,2013-08-20 20:58:00,
2013-08-20 17:03:00,82.0,60.4,30.56,WNW,286,5.8,5.8,48,0.00,FEW,,0.00,WeatherDisplay:10.37,2013-08-20 21:03:00,
2013-08-20 17:08:00,82.3,61.8,30.56,West,271,7.0,7.0,50,0.00,FEW,,0.00,WeatherDisplay:10.37,2013-08-20 21:08:00,
2013-08-20 17:13:00,82.0,61.0,30.56,West,269,6.9,6.9,49,0.00,FEW,,0.00,WeatherDisplay:10.37,2013-08-20 21:13:00,
2013-08-20 17:18:00,82.1,61.0,30.56,WNW,288,8.1,8.1,49,0.00,FEW,,0.00,WeatherDisplay:10.37,2013-08-20 21:18:00,
2013-08-20 17:23:00,82.0,62.6,30.56,West,262,6.9,6.9,52,0.00,FEW,,0.00,WeatherDisplay:10.37,2013-08-20 21:23:00,
2013-08-20 17:28:00,82.0,61.0,30.56,West,266,6.9,6.9,49,0.00,FEW,,0.00,WeatherDisplay:10.37,2013-08-20 21:28:00,
2013-08-20 17:33:00,81.9,60.3,30.56,West,267,9.2,9.2,48,0.00,FEW,,0.00,WeatherDisplay:10.37,2013-08-20 21:33:00,
2013-08-20 17:38:00,81.9,62.5,30.56,West,274,6.9,6.9,52,0.00,FEW,,0.00,WeatherDisplay:10.37,2013-08-20 21:38:00,
2013-08-20 17:43:00,82.1,61.6,30.56,West,271,5.8,5.8,50,0.00,FEW,,0.00,WeatherDisplay:10.37,2013-08-20 21:43:00,
2013-08-20 17:48:00,82.0,61.5,30.56,WSW,253,5.8,5.8,50,0.00,FEW,,0.00,WeatherDisplay:10.37,2013-08-20 21:48:00,
2013-08-20 17:53:00,81.7,61.8,30.56,West,280,5.8,5.8,51,0.00,FEW,,0.00,WeatherDisplay:10.37,2013-08-20 21:53:00,
2013-08-20 17:58:00,81.6,62.8,30.56,WNW,284,3.5,3.5,53,0.00,FEW,,0.00,WeatherDisplay:10.37,2013-08-20 21:58:00,
2013-08-20 18:03:00,81.7,62.4,30.56,WNW,294,4.6,4.6,52,0.00,CLR,,0.00,WeatherDisplay:10.37,2013-08-20 22:03:00,
2013-08-20 18:08:00,81.5,60.5,30.56,WNW,294,4.6,4.6,49,0.00,CLR,,0.00,WeatherDisplay:10.37,2013-08-20 22:08:00,
2013-08-20 18:13:00,81.3,60.9,30.55,West,276,10.4,10.4,50,0.00,CLR,,0.00,WeatherDisplay:10.37,2013-08-20 22:13:00,
2013-08-20 18:18:00,81.0,60.6,30.56,WNW,292,4.0,4.3,50,0.00,CLR,,0.00,WeatherDisplay:10.37,2013-08-20 22:18:00,
2013-08-20 18:23:00,80.9,59.4,30.56,WNW,289,5.8,5.8,48,0.00,CLR,,0.00,WeatherDisplay:10.37,2013-08-20 22:23:00,
2013-08-20 18:28:00,80.8,59.9,30.56,WNW,299,6.9,6.9,49,0.00,CLR,,0.00,WeatherDisplay:10.37,2013-08-20 22:28:00,
2013-08-20 18:33:00,80.6,60.2,30.56,WNW,297,4.6,4.6,50,0.00,CLR,,0.00,WeatherDisplay:10.37,2013-08-20 22:33:00,
2013-08-20 18:38:00,80.3,61.1,30.56,WNW,290,4.6,4.6,52,0.00,CLR,,0.00,WeatherDisplay:10.37,2013-08-20 22:38:00,
2013-08-20 18:43:00,80.2,61.0,30.56,West,281,3.5,3.5,52,0.00,CLR,,0.00,WeatherDisplay:10.37,2013-08-20 22:43:00,
2013-08-20 18:48:00,80.2,62.0,30.56,West,269,2.3,2.3,54,0.00,CLR,,0.00,WeatherDisplay:10.37,2013-08-20 22:48:00,
2013-08-20 18:53:00,80.2,61.0,30.56,West,272,2.3,2.3,52,0.00,CLR,,0.00,WeatherDisplay:10.37,2013-08-20 22:53:00,
2013-08-20 18:58:00,80.1,60.9,30.56,West,280,2.3,2.3,52,0.00,CLR,,0.00,WeatherDisplay:10.37,2013-08-20 22:58:00,
2013-08-20 19:03:00,79.9,62.8,30.56,WNW,283,2.3,2.3,56,0.00,CLR,,0.00,WeatherDisplay:10.37,2013-08-20 23:03:00,
2013-08-20 19:08:00,79.5,62.4,30.56,West,269,2.3,2.3,56,0.00,CLR,,0.00,WeatherDisplay:10.37,2013-08-20 23:08:00,
2013-08-20 19:13:00,79.2,62.7,30.56,West,280,1.2,1.2,57,0.00,CLR,,0.00,WeatherDisplay:10.37,2013-08-20 23:13:00,
2013-08-20 19:18:00,79.0,62.5,30.56,WNW,289,3.5,3.5,57,0.00,CLR,,0.00,WeatherDisplay:10.37,2013-08-20 23:18:00,
2013-08-20 19:23:00,78.8,63.3,30.56,WNW,289,1.2,0.0,59,0.00,CLR,,0.00,WeatherDisplay:10.37,2013-08-20 23:23:00,
2013-08-20 19:28:00,78.7,63.2,30.56,WNW,289,0.0,0.0,59,0.00,CLR,,0.00,WeatherDisplay:10.37,2013-08-20 23:28:00,
2013-08-20 19:33:00,77.9,62.9,30.56,WNW,288,1.2,1.2,60,0.00,CLR,,0.00,WeatherDisplay:10.37,2013-08-20 23:33:00,
2013-08-20 19:38:00,76.9,62.4,30.56,WNW,284,3.5,3.5,61,0.00,CLR,,0.00,WeatherDisplay:10.37,2013-08-20 23:38:00,
2013-08-20 19:43:00,76.4,62.4,30.56,WNW,291,1.2,0.0,62,0.00,CLR,,0.00,WeatherDisplay:10.37,2013-08-20 23:43:00,
2013-08-20 19:49:00,75.6,63.0,30.56,WNW,291,0.0,0.0,65,0.00,CLR,,0.00,WeatherDisplay:10.37,2013-08-20 23:49:00,
2013-08-20 19:54:00,74.6,63.3,30.56,WNW,291,0.0,0.0,68,0.00,CLR,,0.00,WeatherDisplay:10.37,2013-08-20 23:54:00,
2013-08-20 19:59:00,73.5,63.1,30.56,WNW,291,0.0,0.0,70,0.00,CLR,,0.00,WeatherDisplay:10.37,2013-08-20 23:59:00,
2013-08-20 20:04:00,72.6,63.1,30.56,WNW,292,0.0,0.0,72,0.00,CLR,,0.00,WeatherDisplay:10.37,2013-08-21 00:04:00,
2013-08-20 20:09:00,71.5,63.5,30.56,WNW,291,0.0,0.0,76,0.00,CLR,,0.00,WeatherDisplay:10.37,2013-08-21 00:09:00,
2013-08-20 20:14:00,70.9,63.3,30.56,WNW,291,0.0,0.0,77,0.00,CLR,,0.00,WeatherDisplay:10.37,2013-08-21 00:14:00,
2013-08-20 20:19:00,70.3,62.7,30.56,WNW,291,0.0,0.0,77,0.00,CLR,,0.00,WeatherDisplay:10.37,2013-08-21 00:19:00,
2013-08-20 20:24:00,69.7,62.5,30.56,WNW,292,0.0,0.0,78,0.00,CLR,,0.00,WeatherDisplay:10.37,2013-08-21 00:24:00,
2013-08-20 20:29:00,69.2,62.4,30.57,WNW,292,0.0,0.0,79,0.00,CLR,,0.00,WeatherDisplay:10.37,2013-08-21 00:29:00,
2013-08-20 20:34:00,68.5,62.1,30.56,WNW,291,0.0,0.0,80,0.00,CLR,,0.00,WeatherDisplay:10.37,2013-08-21 00:34:00,
2013-08-20 20:39:00,67.7,62.0,30.57,WNW,292,0.0,0.0,82,0.00,CLR,,0.00,WeatherDisplay:10.37,2013-08-21 00:39:00,
2013-08-20 20:44:00,67.2,62.9,30.57,WNW,292,0.0,0.0,86,0.00,CLR,,0.00,WeatherDisplay:10.37,2013-08-21 00:44:00,
2013-08-20 20:49:00,66.6,62.3,30.57,WNW,292,0.0,0.0,86,0.00,CLR,,0.00,WeatherDisplay:10.37,2013-08-21 00:49:00,
2013-08-20 20:54:00,66.0,62.0,30.57,WNW,292,0.0,0.0,87,0.00,CLR,,0.00,WeatherDisplay:10.37,2013-08-21 00:54:00,
2013-08-20 20:59:00,65.3,62.0,30.57,WNW,291,0.0,0.0,89,0.00,CLR,,0.00,WeatherDisplay:10.37,2013-08-21 00:59:00,
2013-08-20 21:04:00,64.9,61.9,30.58,WNW,292,0.0,0.0,90,0.00,CLR,,0.00,WeatherDisplay:10.37,2013-08-21 01:04:00,
2013-08-20 21:09:00,64.7,62.0,30.58,WNW,291,0.0,0.0,91,0.00,CLR,,0.00,WeatherDisplay:10.37,2013-08-21 01:09:00,
2013-08-20 21:14:00,64.2,61.5,30.58,WNW,292,0.0,0.0,91,0.00,CLR,,0.00,WeatherDisplay:10.37,2013-08-21 01:14:00,
2013-08-20 21:19:00,63.8,61.4,30.58,WNW,292,0.0,0.0,92,0.00,CLR,,0.00,WeatherDisplay:10.37,2013-08-21 01:19:00,
2013-08-20 21:24:00,63.7,61.6,30.58,WNW,292,0.0,0.0,93,0.00,CLR,,0.00,WeatherDisplay:10.37,2013-08-21 01:24:00,
2013-08-20 21:29:00,63.4,61.3,30.58,WNW,291,0.0,0.0,93,0.00,CLR,,0.00,WeatherDisplay:10.37,2013-08-21 01:29:00,
2013-08-20 21:34:00,63.5,61.7,30.58,WNW,292,0.0,0.0,94,0.00,CLR,,0.00,WeatherDisplay:10.37,2013-08-21 01:34:00,
2013-08-20 21:39:00,63.3,61.5,30.58,WNW,292,0.0,0.0,94,0.00,CLR,,0.00,WeatherDisplay:10.37,2013-08-21 01:39:00,
2013-08-20 21:44:00,63.4,61.9,30.58,WNW,292,1.2,0.0,95,0.00,CLR,,0.00,WeatherDisplay:10.37,2013-08-21 01:44:00,
2013-08-20 21:49:00,63.4,61.9,30.58,WNW,291,0.0,0.0,95,0.00,CLR,,0.00,WeatherDisplay:10.37,2013-08-21 01:49:00,
2013-08-20 21:54:00,63.4,61.9,30.58,WNW,292,0.0,0.0,95,0.00,CLR,,0.00,WeatherDisplay:10.37,2013-08-21 01:54:00,
2013-08-20 21:59:00,63.2,61.7,30.58,WNW,292,0.0,0.0,95,0.00,CLR,,0.00,WeatherDisplay:10.37,2013-08-21 01:59:00,
2013-08-20 22:04:00,62.9,61.1,30.58,WNW,291,0.0,0.0,94,0.00,CLR,,0.00,WeatherDisplay:10.37,2013-08-21 02:04:00,
2013-08-20 22:09:00,62.6,61.1,30.59,WNW,291,0.0,0.0,95,0.00,CLR,,0.00,WeatherDisplay:10.37,2013-08-21 02:09:00,
2013-08-20 22:14:00,62.5,61.0,30.59,WNW,292,0.0,0.0,95,0.00,CLR,,0.00,WeatherDisplay:10.37,2013-08-21 02:14:00,
2013-08-20 22:19:00,62.3,60.8,30.59,WNW,291,0.0,0.0,95,0.00,CLR,,0.00,WeatherDisplay:10.37,2013-08-21 02:19:00,
2013-08-20 22:24:00,62.0,60.6,30.59,WNW,292,0.0,0.0,95,0.00,CLR,,0.00,WeatherDisplay:10.37,2013-08-21 02:24:00,
2013-08-20 22:29:00,61.8,60.4,30.59,WNW,292,0.0,0.0,95,0.00,CLR,,0.00,WeatherDisplay:10.37,2013-08-21 02:29:00,
2013-08-20 22:34:00,61.7,60.5,30.58,WNW,292,0.0,0.0,96,0.00,CLR,,0.00,WeatherDisplay:10.37,2013-08-21 02:34:00,
2013-08-20 22:39:00,61.8,60.6,30.59,WNW,292,0.0,0.0,96,0.00,CLR,,0.00,WeatherDisplay:10.37,2013-08-21 02:39:00,
2013-08-20 22:44:00,61.8,60.6,30.59,WNW,292,0.0,0.0,96,0.00,CLR,,0.00,WeatherDisplay:10.37,2013-08-21 02:44:00,
2013-08-20 22:49:00,61.8,60.6,30.59,WNW,291,0.0,0.0,96,0.00,CLR,,0.00,WeatherDisplay:10.37,2013-08-21 02:49:00,
2013-08-20 22:54:00,61.6,60.4,30.59,WNW,291,0.0,0.0,96,0.00,CLR,,0.00,WeatherDisplay:10.37,2013-08-21 02:54:00,
2013-08-20 22:59:00,61.7,60.8,30.59,WNW,291,0.0,0.0,97,0.00,CLR,,0.00,WeatherDisplay:10.37,2013-08-21 02:59:00,
2013-08-20 23:04:00,61.4,60.2,30.59,WNW,291,0.0,0.0,96,0.00,CLR,,0.00,WeatherDisplay:10.37,2013-08-21 03:04:00,
2013-08-20 23:09:00,61.1,60.0,30.59,WNW,292,0.0,0.0,96,0.00,CLR,,0.00,WeatherDisplay:10.37,2013-08-21 03:09:00,
2013-08-20 23:14:00,61.1,60.2,30.59,WNW,291,0.0,0.0,97,0.00,CLR,,0.00,WeatherDisplay:10.37,2013-08-21 03:14:00,
2013-08-20 23:19:00,61.1,60.2,30.59,WNW,291,0.0,0.0,97,0.00,CLR,,0.00,WeatherDisplay:10.37,2013-08-21 03:19:00,
2013-08-20 23:24:00,61.3,60.4,30.60,WNW,291,0.0,0.0,97,0.00,CLR,,0.00,WeatherDisplay:10.37,2013-08-21 03:24:00,
2013-08-20 23:29:00,61.3,60.4,30.60,WNW,291,0.0,0.0,97,0.00,CLR,,0.00,WeatherDisplay:10.37,2013-08-21 03:29:00,
2013-08-20 23:34:00,61.4,60.5,30.59,WNW,291,0.0,0.0,97,0.00,CLR,,0.00,WeatherDisplay:10.37,2013-08-21 03:34:00,
2013-08-20 23:39:00,61.5,60.6,30.60,WNW,291,0.0,0.0,97,0.00,CLR,,0.00,WeatherDisplay:10.37,2013-08-21 03:39:00,
2013-08-20 23:44:00,61.5,60.6,30.60,WNW,291,0.0,0.0,97,0.00,CLR,,0.00,WeatherDisplay:10.37,2013-08-21 03:44:00,
2013-08-20 23:49:00,61.2,60.3,30.60,WNW,291,0.0,0.0,97,0.00,CLR,,0.00,WeatherDisplay:10.37,2013-08-21 03:49:00,
2013-08-20 23:54:00,61.0,60.1,30.60,WNW,291,0.0,0.0,97,0.00,CLR,,0.00,WeatherDisplay:10.37,2013-08-21 03:54:00,
2013-08-20 23:59:00,60.8,59.9,30.60,WNW,291,0.0,0.0,97,0.00,CLR,,0.00,WeatherDisplay:10.37,2013-08-21 03:59:00,